PI1GDA-1 Weather Reports


time (UTC)temp
C
wind
direction
speed
KPH
gust
KPH
rain 1hr
cm
rain 24hr
cm
rain mn
cm
humidity
%
barometer
mb
20260506203835 12 22 6.4 30.6 0.00 0.00 0.00 74 1012.9
20260506202834 12 0 4.8 30.6 0.00 0.00 0.00 74 1012.9
20260506201832 12 0 4.8 30.6 0.00 0.00 0.00 74 1012.9
20260506200832 12 45 4.8 30.6 0.00 0.00 0.00 74 1012.7
20260506195830 12 45 6.4 30.6 0.00 0.00 0.00 74 1012.7
20260506194830 12 45 8.0 30.6 0.00 0.00 0.00 73 1012.6
20260506193830 12 45 6.4 30.6 0.00 0.00 0.00 72 1012.6
20260506192829 12 22 4.8 30.6 0.00 0.00 0.00 70 1012.4
20260506191827 12 45 4.8 30.6 0.00 0.00 0.00 70 1012.3
20260506190826 12 45 4.8 30.6 0.00 0.00 0.00 69 1012.2
20260506185825 12 22 4.8 30.6 0.00 0.00 0.00 69 1012.0
20260506184825 13 45 4.8 30.6 0.00 0.00 0.00 68 1011.9
20260506183824 13 45 8.0 30.6 0.00 0.00 0.00 67 1011.8
20260506182823 13 68 6.4 30.6 0.00 0.00 0.00 66 1011.7
20260506181821 13 90 4.8 30.6 0.00 0.00 0.00 65 1011.6
20260506180821 13 22 4.8 30.6 0.00 0.00 0.00 64 1011.4
20260506175818 13 45 4.8 30.6 0.00 0.00 0.00 64 1011.4
20260506174816 13 45 4.8 30.6 0.00 0.00 0.00 63 1011.2
20260506173816 13 45 4.8 30.6 0.00 0.00 0.00 62 1011.0
20260506172814 14 0 3.2 30.6 0.00 0.00 0.00 62 1011.0
20260506171812 14 22 4.8 30.6 0.00 0.00 0.00 62 1010.9
20260506170811 14 135 3.2 30.6 0.00 0.00 0.00 61 1010.9
20260506165810 14 90 4.8 30.6 0.00 0.00 0.00 62 1010.8
20260506164810 14 68 6.4 30.6 0.00 0.00 0.00 62 1010.9
20260506163804 14 45 6.4 30.6 0.00 0.00 0.00 61 1010.9
20260506162803 14 22 8.0 30.6 0.00 0.00 0.00 61 1010.9
20260506161802 14 90 8.0 30.6 0.00 0.00 0.00 60 1010.8
20260506160802 14 112 8.0 30.6 0.00 0.00 0.00 59 1010.8
20260506155801 14 90 8.0 30.6 0.00 0.00 0.00 60 1010.9
20260506154759 14 45 8.0 30.6 0.00 0.00 0.00 60 1010.9
20260506153759 14 112 6.4 30.6 0.00 0.00 0.00 60 1010.8
20260506152758 14 45 6.4 30.6 0.00 0.00 0.00 60 1010.9
20260506151754 14 90 8.0 30.6 0.00 0.00 0.00 61 1010.9
20260506150753 14 90 8.0 30.6 0.00 0.00 0.00 59 1010.8
20260506145752 14 45 9.7 30.6 0.00 0.00 0.00 59 1010.7
20260506144751 14 90 11.3 30.6 0.00 0.00 0.00 60 1010.7
20260506143750 14 112 8.0 30.6 0.00 0.00 0.00 58 1010.8
20260506142749 14 90 11.3 30.6 0.00 0.00 0.00 58 1010.7
20260506141749 15 90 8.0 30.6 0.00 0.00 0.00 57 1010.8
20260506140748 15 45 8.0 30.6 0.00 0.00 0.00 55 1010.8
20260506135747 15 45 8.0 30.6 0.00 0.00 0.00 55 1010.7
20260506134746 15 68 9.7 30.6 0.00 0.00 0.00 55 1010.7
20260506133746 15 68 12.9 30.6 0.00 0.00 0.00 56 1010.6
20260506132744 15 68 12.9 30.6 0.00 0.00 0.00 56 1010.5
20260506131743 15 112 11.3 30.6 0.00 0.00 0.00 58 1010.4
20260506130743 15 68 11.3 30.6 0.00 0.00 0.00 57 1010.4
20260506125743 15 68 9.7 30.6 0.00 0.00 0.00 59 1010.3
20260506124742 15 112 9.7 30.6 0.00 0.00 0.00 60 1010.2
20260506123741 15 45 11.3 30.6 0.00 0.00 0.00 57 1010.3
20260506122741 16 68 11.3 30.6 0.00 0.00 0.00 58 1010.1
20260506121740 16 45 8.0 30.6 0.00 0.00 0.00 59 1010.2
20260506120740 15 0 9.7 30.6 0.00 0.00 0.00 62 1010.2
20260506115740 15 45 11.3 30.6 0.00 0.00 0.00 62 1010.2
20260506114739 15 68 12.9 30.6 0.00 0.00 0.00 62 1010.2
20260506113736 16 45 12.9 30.6 0.00 0.00 0.00 61 1010.3
20260506112735 15 22 12.9 30.6 0.00 0.00 0.00 62 1010.2
20260506111735 15 112 11.3 30.6 0.00 0.00 0.00 62 1010.2
20260506110734 15 68 11.3 29.0 0.00 0.00 0.00 62 1010.2
20260506105733 14 22 11.3 29.0 0.00 0.00 0.00 65 1010.2
20260506104732 15 22 11.3 29.0 0.00 0.00 0.00 67 1010.2
20260506103731 15 68 12.9 29.0 0.00 0.00 0.00 67 1010.1
20260506102730 14 45 12.9 29.0 0.00 0.00 0.00 69 1010.2
20260506101729 14 22 11.3 29.0 0.00 0.00 0.00 69 1010.1
20260506100729 14 338 11.3 29.0 0.00 0.00 0.00 69 1010.0
20260506095728 15 68 12.9 29.0 0.00 0.00 0.00 67 1010.0
20260506094728 15 68 12.9 29.0 0.00 0.00 0.00 66 1009.9
20260506093728 15 45 9.7 24.1 0.00 0.00 0.00 64 1009.8
20260506092727 15 45 8.0 24.1 0.00 0.00 0.00 66 1009.8
20260506091725 15 22 8.0 24.1 0.00 0.00 0.00 68 1009.7
20260506090724 15 0 9.7 24.1 0.00 0.00 0.00 69 1009.7
20260506085722 14 45 9.7 22.5 0.00 0.00 0.00 72 1009.7
20260506084721 13 22 9.7 22.5 0.00 0.00 0.00 77 1009.6
20260506083720 13 22 9.7 22.5 0.00 0.00 0.00 78 1009.6
20260506082719 13 68 8.0 22.5 0.00 0.00 0.00 79 1009.5
20260506081716 12 22 8.0 22.5 0.00 0.00 0.00 79 1009.5
20260506080715 12 0 8.0 22.5 0.00 0.00 0.00 80 1009.5
20260506072711 11 22 8.0 22.5 0.00 0.00 0.00 83 1009.5
20260506071710 11 0 8.0 22.5 0.00 0.00 0.00 83 1009.5
20260506070709 11 0 8.0 22.5 0.00 0.00 0.00 83 1009.4
20260506061703 10 338 8.0 20.9 0.00 0.00 0.00 85 1009.1
20260506060702 10 22 8.0 20.9 0.00 0.00 0.00 85 1009.1
20260506050656 10 22 4.8 19.3 0.00 0.00 0.00 87 1009.0
20260506044654 10 0 6.4 19.3 0.00 0.00 0.00 87 1009.1
20260506043653 10 22 4.8 19.3 0.00 0.00 0.00 87 1009.1
20260506042652 10 338 6.4 19.3 0.00 0.00 0.00 87 1009.1
20260506041650 10 22 6.4 19.3 0.00 0.00 0.00 86 1009.2
20260506040649 10 45 4.8 19.3 0.00 0.00 0.00 86 1009.2
20260506035649 10 68 6.4 19.3 0.00 0.00 0.00 85 1009.3
20260506034647 10 22 6.4 19.3 0.00 0.00 0.00 85 1009.3
20260506033646 10 45 6.4 19.3 0.00 0.00 0.00 84 1009.3
20260506032645 10 45 6.4 19.3 0.00 0.00 0.00 84 1009.4
20260506031644 10 22 6.4 19.3 0.00 0.00 0.00 84 1009.4
20260506030643 10 68 6.4 19.3 0.00 0.00 0.00 84 1009.4
20260506025642 10 22 4.8 19.3 0.00 0.00 0.00 84 1009.5
20260506024642 10 22 6.4 19.3 0.00 0.00 0.00 84 1009.5
20260506023640 10 45 4.8 19.3 0.00 0.00 0.00 84 1009.6
20260506022640 10 0 6.4 19.3 0.00 0.00 0.00 84 1009.6
20260506021639 10 0 6.4 19.3 0.00 0.00 0.00 84 1009.6
20260506020638 10 338 6.4 19.3 0.00 0.00 0.00 84 1009.6
20260506015636 9 315 6.4 17.7 0.00 0.00 0.00 84 1009.6
20260506014634 9 22 6.4 17.7 0.00 0.00 0.00 84 1009.6
20260506013633 9 0 6.4 17.7 0.00 0.00 0.00 84 1009.7
20260506012633 10 22 4.8 17.7 0.00 0.00 0.00 84 1009.7
20260506011630 10 22 6.4 17.7 0.00 0.00 0.00 83 1009.7
20260506010629 10 315 6.4 17.7 0.00 0.00 0.00 84 1009.8
20260506005629 10 45 6.4 17.7 0.00 0.00 0.00 83 1009.9
20260506004627 10 338 6.4 17.7 0.00 0.00 0.00 83 1010.0
20260506003627 10 338 6.4 17.7 0.00 0.00 0.00 83 1010.0
20260506002626 10 338 6.4 17.7 0.00 0.00 0.00 83 1010.2
20260506001624 10 22 4.8 17.7 0.00 0.00 0.00 82 1010.4
20260506000624 10 0 6.4 17.7 0.00 0.00 0.00 82 1010.3
20260505235623 10 22 6.4 17.7 0.00 0.00 0.00 82 1010.3
20260505234622 10 45 4.8 17.7 0.00 0.00 0.00 82 1010.4
20260505233620 10 315 4.8 17.7 0.00 0.00 0.00 82 1010.4
20260505232620 10 0 4.8 17.7 0.00 0.00 0.00 82 1010.5
20260505231619 10 0 4.8 17.7 0.00 0.00 0.00 81 1010.7
20260505230619 10 22 4.8 16.1 0.00 0.00 0.00 81 1010.8
20260505225617 10 0 4.8 16.1 0.00 0.00 0.00 80 1010.8
20260505224617 10 338 4.8 16.1 0.00 0.00 0.00 80 1010.8
20260505223615 10 0 4.8 16.1 0.00 0.00 0.00 80 1011.0
20260505222614 10 22 4.8 16.1 0.00 0.00 0.00 79 1010.9
20260505221613 10 338 6.4 16.1 0.00 0.00 0.00 79 1011.0
20260505220613 10 315 8.0 11.3 0.00 0.00 0.00 79 1010.8
20260505215611 10 90 8.0 30.6 0.00 0.00 0.00 79 1010.9
20260505214610 10 0 6.4 30.6 0.00 0.00 0.00 78 1011.0
20260505213610 10 0 6.4 30.6 0.00 0.00 0.00 78 1011.2
20260505212609 10 0 8.0 30.6 0.00 0.00 0.00 78 1011.2
20260505211607 10 45 8.0 30.6 0.00 0.00 0.00 78 1011.2
20260505210607 10 0 9.7 30.6 0.00 0.00 0.00 78 1011.2
20260505205605 11 0 9.7 30.6 0.00 0.00 0.00 78 1011.3
20260505204604 11 22 6.4 30.6 0.00 0.00 0.00 79 1011.4